AO-07 1 07530U 74089B 23026.55289259 -.00000032 00000-0 87370-4 0 9996 2 07530 101.9337 12.3506 0012175 335.8248 136.3355 12.53660535205422 UO-11 1 14781U 84021B 23026.51754144 .00002359 00000-0 28793-3 0 9991 2 14781 97.6420 9.1353 0007023 316.7227 43.3436 14.84204249 73126 AO-16 1 20439U 90005D 23026.51639031 .00000329 00000-0 13704-3 0 9995 2 20439 98.8711 13.2122 0009718 257.6644 217.8401 14.32998084724615 LO-19 1 20442U 90005G 23026.45067397 .00000342 00000-0 14145-3 0 9997 2 20442 98.8262 0.0846 0010830 231.3451 128.6764 14.33151551725049 HUBBLE 1 20580U 90037B 23026.33129427 .00005435 00000-0 29994-3 0 9991 2 20580 28.4698 130.8872 0001968 289.2534 107.7208 15.11761078599960 MET-2/21 1 22782U 93055A 23026.62573252 .00000057 00000-0 37905-4 0 9998 2 22782 82.5487 197.1076 0023388 81.7621 347.3580 13.83871588484870 AO-27 1 22825U 93061C 23026.54669583 .00000176 00000-0 85602-4 0 9996 2 22825 98.8623 67.0124 0009398 118.5392 241.6737 14.30236282530048 IO-26 1 22826U 93061D 23026.58546038 .00000206 00000-0 96445-4 0 9991 2 22826 98.8570 66.9193 0009985 106.1478 254.0803 14.30589202530319 FO-29 1 24278U 96046B 23026.59261610 -.00000005 00000-0 28648-4 0 9999 2 24278 98.5163 24.5314 0351229 64.3355 299.3623 13.53129314305783 NOAA-15 1 25338U 98030A 23026.58984152 .00000248 00000-0 12155-3 0 9997 2 25338 98.6229 57.9569 0010487 12.9978 347.1470 14.26231026285071 GO-32 1 25397U 98043D 23026.48231710 .00000189 00000-0 10223-3 0 9998 2 25397 98.8497 342.8741 0001544 141.8880 218.2408 14.23811119275163 ISS 1 25544U 98067A 23026.66540993 .00024244 00000-0 42857-3 0 9990 2 25544 51.6455 309.5225 0004827 282.4220 149.1142 15.50183428379845 NO-44 1 26931U 01043C 23026.58681133 .00000312 00000-0 15054-3 0 9991 2 26931 67.0495 202.4169 0005640 281.1178 78.9290 14.30804110113485 SO-50 1 27607U 02058C 23026.31883638 .00002302 00000-0 33192-3 0 9998 2 27607 64.5573 339.6811 0079177 252.2680 106.9770 14.76664577 81272 CO-55 1 27844U 03031E 23026.60832880 .00000549 00000-0 26504-3 0 9998 2 27844 98.6797 35.9409 0010016 169.9016 190.2365 14.22603858 15600 CO-57 1 27848U 03031J 23026.50139588 .00000459 00000-0 22700-3 0 9990 2 27848 98.6836 36.3003 0009599 184.6721 175.4369 14.22139247 15362 RS-22 1 27939U 03042A 23026.42201094 .00002141 00000-0 38363-3 0 9998 2 27939 98.2177 172.5639 0012041 220.5466 139.4864 14.67801990 33749 NOAA-18 1 28654U 05018A 23026.78915133 .00000285 00000-0 17690-3 0 9990 2 28654 98.9257 101.7919 0015007 62.7222 297.5477 14.12849164911607 CO-58 1 28895U 05043F 23026.31218236 .00002680 00000-0 50913-3 0 9990 2 28895 98.1315 159.7213 0016845 156.1640 204.0346 14.64909926920039 CO-65 1 32785U 08021C 23026.44857829 .00005064 00000-0 52040-3 0 9995 2 32785 97.6886 355.7485 0011653 206.7280 153.3339 14.90738132799762 AAUSAT2 1 32788U 08021F 23026.46451374 .00010727 00000-0 86308-3 0 9991 2 32788 97.5549 9.4996 0010388 96.8465 263.3941 15.00106330801831 DO-64 1 32789U 08021G 23026.60119932 .00037688 00000-0 16674-2 0 9992 2 32789 97.3213 50.5445 0006359 261.6427 98.4088 15.21554753805750 CO-66 1 32791U 08021J 23026.43937729 .00006392 00000-0 59823-3 0 9990 2 32791 97.6396 1.0277 0013065 158.9191 201.2571 14.94356702800557 RS-30 1 32953U 08025A 23026.15397894 .00000024 00000-0 10000-3 0 9996 2 32953 82.5035 45.4330 0020392 132.2335 228.0489 12.43117989666007 PRISM 1 33493U 09002B 23026.54287399 .00011910 00000-0 89479-3 0 9995 2 33493 98.2520 31.5131 0018390 154.8944 205.3177 15.02630057762447 NOAA-19 1 33591U 09005A 23026.60366337 .00000255 00000-0 16247-3 0 9997 2 33591 99.1217 70.1328 0012973 281.8369 78.1347 14.12675512719957 SRMSAT 1 37841U 11058D 23026.06412138 .00000574 00000-0 17020-3 0 9995 2 37841 19.9736 349.2640 0011675 269.4891 165.7843 14.10821639582719 HRBE 1 37855U 11061F 23026.11284646 .00019706 00000-0 75515-3 0 9991 2 37855 101.7101 269.3839 0138517 112.5809 249.0133 15.18078809614945 RS-40 1 38735U 12041C 23026.44542918 .00000001 00000-0 -62525-4 0 9990 2 38735 82.4783 126.4889 0016623 242.9307 117.0083 12.42590191476217 ZACUBE-1 1 39417U 13066B 23026.46301823 .00005586 00000-0 66627-3 0 9994 2 39417 97.6681 353.4001 0057416 34.7788 325.7158 14.83466816496174 Delfi-N3xt 1 39428U 13066N 23026.35275003 .00007366 00000-0 11018-2 0 9995 2 39428 97.8293 316.4526 0112736 284.8897 73.9848 14.70727531491278 GOMX-1 1 39430U 13066Q 23026.32318597 .00003194 00000-0 56604-3 0 9997 2 39430 97.7962 285.6774 0149023 62.0218 299.5953 14.60901708488826 LO-74 1 39440U 13066AA 23026.41442992 .00003856 00000-0 51427-3 0 9998 2 39440 97.7570 340.0743 0078713 127.2784 233.5639 14.78007353493202 AO-73 1 39444U 13066AE 23026.43767961 .00006791 00000-0 78396-3 0 9995 2 39444 97.6542 355.8299 0055613 21.7884 338.5679 14.84808391494598 SPROUT 1 39770U 14029E 23026.29899101 .00022105 00000-0 20125-2 0 9996 2 39770 97.9561 150.4200 0008166 67.3834 292.7937 14.95156057470901 DTUSAT-2 1 40030U 14033W 23025.59199354 .00005523 00000-0 55966-3 0 9994 2 40030 97.9568 324.6041 0012611 48.7719 311.4584 14.91274128466731 EO-80 1 40032U 14033Y 23026.37280572 .00006527 00000-0 66037-3 0 9992 2 40032 97.9569 325.4077 0012485 47.7587 312.4688 14.91269335466823 HODOYOSHI-1 1 40299U 14070B 23026.50966141 .00013211 00000-0 45776-3 0 9991 2 40299 97.2163 93.0781 0012877 66.8577 41.1689 15.29876100457123 FIREBIRD FU3 1 40377U 15003B 23026.30102381 .00070939 00000-0 14992-2 0 9996 2 40377 99.0772 307.2985 0076487 346.8628 13.0620 15.41775070442582 FIREBIRD FU4 1 40378U 15003C 23026.57100236 .00073112 00000-0 15376-2 0 9996 2 40378 99.0785 307.9083 0076233 345.3341 14.5688 15.41927486442634 GRIFEX 1 40379U 15003D 23026.29779388 .00028913 00000-0 85484-3 0 9993 2 40379 99.0842 290.2971 0102224 37.4030 323.4263 15.29785611441608 XW-2A 1 40903U 15049E 23026.49403630 .00092175 00000-0 74946-3 0 9994 2 40903 97.1445 91.8863 0005820 13.1929 93.4139 15.70387608414028 XW-2C 1 40906U 15049H 23026.59205426 .00014807 00000-0 64604-3 0 9997 2 40906 97.4954 33.6672 0010984 305.3362 171.4934 15.22199835406824 XW-2D 1 40907U 15049J 23026.55793095 .00017092 00000-0 72058-3 0 9999 2 40907 97.4948 33.8641 0010102 300.2860 177.0303 15.23341682406883 LILACSAT-2 1 40908U 15049K 23026.70803106 .00008031 00000-0 40276-3 0 9992 2 40908 97.5229 30.3920 0013648 329.3391 90.8277 15.17525350406328 XW-2E 1 40909U 15049L 23026.58475818 .00027984 00000-0 98348-3 0 9995 2 40909 97.4601 39.1002 0008354 266.6853 214.2806 15.29307921407432 XW-2F 1 40910U 15049M 23026.59241231 .00027724 00000-0 99125-3 0 9994 2 40910 97.4700 38.3049 0009024 269.3337 214.0441 15.28741279407191 XW-2B 1 40911U 15049N 23026.53630638 .00017017 00000-0 72080-3 0 9997 2 40911 97.4925 34.3580 0009909 301.7613 176.3468 15.23185728406764 DCBB 1 40912U 15049P 23026.55141333 .00032043 00000-0 10112-2 0 9992 2 40912 97.4286 42.6431 0009411 222.0357 256.6301 15.32750115407835 IO-86 1 40931U 15052B 23025.24553241 .00001330 00000-0 95073-4 0 9993 2 40931 6.0013 26.7673 0014132 68.9954 64.0596 14.76996823396184 ATHENOXAT-1 1 41168U 15077C 23026.20958564 .00061426 00000-0 19473-2 0 9997 2 41168 14.9834 230.3652 0006711 136.7645 10.6040 15.30852019394358 ChubuSat-2 1 41338U 16012B 23026.38445385 .00004907 00000-0 35379-3 0 9992 2 41338 31.0043 43.4483 0013225 206.0757 153.9214 15.02512166381026 ChubuSat-3 1 41339U 16012C 23026.39611976 .00005232 00000-0 37783-3 0 9998 2 41339 31.0123 40.3132 0012930 214.4366 280.9261 15.02500216381020 Horyu-4 1 41340U 16012D 23026.02228453 .00009730 00000-0 65729-3 0 9992 2 41340 31.0055 16.0323 0012844 256.5167 103.4038 15.05263140381260 e-st@r-II 1 41459U 16025D 23026.60420164 .00035897 00000-0 13194-2 0 9995 2 41459 98.1905 214.4989 0126913 228.9210 130.0880 15.20477568371310 AAUSAT4 1 41460U 16025E 23026.48936572 .00069411 00000-0 19247-2 0 9992 2 41460 98.1743 223.2235 0096799 196.5206 220.0380 15.32027073371913 LO-87 1 41557U 16033B 23026.69085565 .00041501 00000-0 93303-3 0 9994 2 41557 97.3870 130.8680 0008962 299.2516 194.9092 15.43177966371692 NuSat2 1 41558U 16033C 23026.90224314 .00044853 00000-0 95275-3 0 9999 2 41558 97.4137 138.1064 0008409 284.4055 196.9739 15.44850726372039 Lapan A3 1 41603U 16040E 23026.53709691 .00003472 00000-0 15701-3 0 9991 2 41603 97.1821 58.6066 0014765 94.9533 60.9498 15.21462674365942 Pratham 1 41783U 16059A 23026.59396284 .00001047 00000-0 20867-3 0 9991 2 41783 97.8876 63.9034 0033126 186.3808 173.6977 14.63619933338261 TY-1 1 41844U 16066D 23026.65451832 .00040189 00000-0 10533-2 0 9993 2 41844 97.3797 43.5639 0009872 197.8482 301.1577 15.38524469345812 CAS-2T 1 41847U 16066G 23026.15688059 .00002116 00000-0 32707-3 0 9990 2 41847 98.5232 95.3253 0360911 263.2948 92.7052 14.39076957326373 EO-88 1 42017U 17008BX 23026.13275536 .00059125 00000-0 11982-2 0 9990 2 42017 97.2386 95.0350 0003637 153.5604 206.5832 15.46195111331328 CAS-4B 1 42759U 17034B 23026.54243791 .00009320 00000-0 51224-3 0 9991 2 42759 43.0154 181.3025 0011804 266.4255 174.0096 15.14210913310143 CAS-4A 1 42761U 17034D 23026.56562583 .00011290 00000-0 61511-3 0 9998 2 42761 43.0154 179.7889 0011933 270.0265 174.8759 15.14360131310153 NIUSat 1 42766U 17036B 23026.64722363 .00022483 00000-0 73933-3 0 9995 2 42766 97.1775 61.7988 0010346 248.2909 111.7232 15.31488438310893 Aalto 1 1 42775U 17036L 23026.59277545 .00017270 00000-0 60200-3 0 9997 2 42775 97.1724 61.1517 0009614 250.2784 109.7420 15.29658779310833 URSA MAIOR 1 42776U 17036M 23026.66116742 .00019197 00000-0 64698-3 0 9992 2 42776 97.1734 62.2287 0009236 247.4407 112.5857 15.30735958310890 Max Valier Sat 1 42778U 17036P 23026.55223472 .00017817 00000-0 57524-3 0 9998 2 42778 97.1781 65.2503 0007967 246.8047 113.2356 15.32146569310999 Pegasus 1 42784U 17036V 23026.56355231 .00030385 00000-0 87481-3 0 9995 2 42784 97.1714 66.7358 0007201 242.2378 117.8136 15.35683493311165 NUDATSat 1 42787U 17036Y 23026.60672918 .00077541 00000-0 14911-2 0 9999 2 42787 97.1707 73.3108 0005464 218.8059 141.2790 15.47635545311414 SUCHAI 1 1 42788U 17036Z 23026.58822024 .00042184 00000-0 10726-2 0 9997 2 42788 97.1705 69.2168 0006315 233.8900 126.1762 15.39472877311397 SKCUBE 1 42789U 17036AA 23026.55313558 .00034174 00000-0 92299-3 0 9998 2 42789 97.1705 68.2770 0006534 236.2579 123.8044 15.37657402311257 VZLUSAT 1 1 42790U 17036AB 23026.07136879 .00071066 00000-0 13962-2 0 9996 2 42790 97.1701 72.6630 0005131 219.8601 140.2273 15.47041554311471 VENTA 1 1 42791U 17036AC 23026.59960060 .00029497 00000-0 84381-3 0 9996 2 42791 97.1717 67.8998 0006519 237.7886 122.2727 15.35895603311223 Robusta 1B 1 42792U 17036AD 23026.59176843 .00041009 00000-0 10624-2 0 9996 2 42792 97.1698 69.1250 0006042 234.2528 125.8156 15.38907674311325 D-SAT 1 42794U 17036AF 23025.96458966 .00005658 00000-0 46397-3 0 9994 2 42794 97.4593 24.8655 0121814 60.0814 301.2440 14.93921387304683 TechnoSat 1 42829U 17042E 23026.79154662 .00003669 00000-0 36076-3 0 9991 2 42829 97.3974 232.6785 0013505 346.8598 13.2269 14.92626825301390 AO-91 1 43017U 17073E 23026.61108845 .00006727 00000-0 48946-3 0 9995 2 43017 97.6501 276.6090 0241477 175.4798 184.8680 14.83595180280178 PICSAT 1 43132U 18004X 23025.94866814 .00041433 00000-0 10297-2 0 9990 2 43132 97.3495 106.9370 0006108 284.5342 75.5227 15.40177666280530 AO-92 1 43137U 18004AC 23026.17474962 .00030447 00000-0 87672-3 0 9995 2 43137 97.3455 104.8336 0006078 296.3006 63.7613 15.35688183280447 TianYi 2 1 43155U 18008A 23026.52009720 .00020200 00000-0 94881-3 0 9990 2 43155 97.3224 82.8737 0016198 86.5437 20.8805 15.19528693277097 Zhou Enlai 1 43156U 18008B 23026.56049132 .00018936 00000-0 89136-3 0 9996 2 43156 97.3279 82.8818 0013654 86.3044 47.6331 15.19502626277026 TianYi 6 1 43158U 18008D 23026.73083522 .00017859 00000-0 88297-3 0 9998 2 43158 97.3241 80.5033 0012954 88.2072 31.2028 15.17815386276923 S-Net D 1 43186U 18014G 23026.61257515 .00005605 00000-0 46647-3 0 9997 2 43186 97.6458 293.0178 0008019 263.1494 96.8817 14.99044003272330 S-Net B 1 43187U 18014H 23026.67983303 .00005541 00000-0 46121-3 0 9991 2 43187 97.6453 293.0241 0007926 263.3556 96.6765 14.99041692272346 S-Net A 1 43188U 18014J 23026.68011788 .00005462 00000-0 45471-3 0 9991 2 43188 97.6461 293.1014 0007985 263.3027 96.7287 14.99041983272346 S-Net C 1 43189U 18014K 23026.61462592 .00005576 00000-0 46420-3 0 9999 2 43189 97.6456 292.9453 0007830 263.9599 96.0732 14.99036904270886 FMN 1 1 43192U 18015A 23026.55557075 .00184031 00000-0 19221-2 0 9990 2 43192 97.5522 185.9617 0010747 300.2651 125.4010 15.63824571277937 Shaonian Xing 1 43199U 18015H 23026.57210131 .00059705 00000-0 12213-2 0 9991 2 43199 97.5339 177.7457 0011571 322.1361 100.4218 15.45855784277751 SurfSat 1 43614U 18070B 23025.20468978 .07521820 16343-6 78964-3 0 9995 2 43614 92.9779 194.4164 0008540 279.0573 80.9768 16.37716428245848 CP-7 DAVE 1 43615U 18070C 23026.43006353 .00488670 96339-4 12711-2 0 9993 2 43615 92.9907 194.2034 0004122 258.8699 101.2122 15.95009581245919 CubeBel-1 1 43666U 18083E 23026.56377124 .00029666 00000-0 10523-2 0 9995 2 43666 97.3994 58.1594 0009774 266.6007 218.2515 15.28980832235497 Changshagaoxin 1 43669U 18083H 23026.54224671 .00024243 00000-0 92174-3 0 9993 2 43669 97.3963 53.3981 0006795 267.3701 245.4984 15.26756324235275 Ten-Koh 1 43677U 18084G 23026.35643753 .00003072 00000-0 30892-3 0 9994 2 43677 97.9901 163.9581 0014413 256.6893 103.2718 14.91925495230904 PO-101 1 43678U 18084H 23026.65218913 .00002251 00000-0 22373-3 0 9997 2 43678 97.9972 168.0401 0008496 270.9271 89.0948 14.92714055231145 IRVINE 01 1 43693U 18088D 23026.36515694 .01468003 11843-2 31424-2 0 9999 2 43693 85.0067 156.4116 0013925 315.6654 44.3513 15.98703614234785 QO-100 1 43700U 18090A 23026.55000841 .00000140 00000-0 00000 0 0 9992 2 43700 0.0124 86.5690 0002304 257.2875 5.4787 1.00271797 15519 Reaktor Hello World 1 43743U 18096AA 23026.16242956 .00040175 00000-0 92871-3 0 9990 2 43743 97.3334 110.9045 0012624 341.1613 18.9166 15.42310194232172 MinXSS-2 1 43758U 18099A 23026.40975359 .00007472 00000-0 61809-3 0 9996 2 43758 97.6003 93.8360 0012459 232.1461 127.8635 14.99129637226488 AO-95 1 43770U 18099N 23025.70354460 .00005959 00000-0 51004-3 0 9990 2 43770 97.5927 91.1193 0012939 248.1809 111.8038 14.97890339226265 RANGE-B 1 43772U 18099Q 23026.11277585 .00009142 00000-0 75749-3 0 9990 2 43772 97.6042 93.7968 0012903 231.1429 128.8643 14.99000698226369 RANGE-A 1 43773U 18099R 23026.11014903 .00004997 00000-0 43741-3 0 9994 2 43773 97.5846 89.9840 0011925 231.7963 128.2186 14.97094557226292 MOVE-II 1 43780U 18099Y 23026.41357813 .00010211 00000-0 81865-3 0 9990 2 43780 97.6027 93.6327 0010442 249.6548 110.3554 15.00258855226451 SNUSat 2 1 43782U 18099AA 23025.66538869 .00006683 00000-0 57063-3 0 9991 2 43782 97.5949 91.5935 0010463 229.3593 130.6721 14.97958032226286 SnugLite 1 43784U 18099AC 23026.13019628 .00007798 00000-0 65825-3 0 9996 2 43784 97.5907 91.6693 0012489 236.5069 123.4961 14.98332902226382 ITASat 1 1 43786U 18099AE 23026.42160978 .00004400 00000-0 37823-3 0 9999 2 43786 97.5966 92.8384 0013224 238.9955 120.9969 14.97854046226418 EAGLET 1 1 43790U 18099AJ 23026.63901012 .00004273 00000-0 36827-3 0 9990 2 43790 97.5947 93.5863 0012150 240.7798 119.2209 14.97782882226185 ESEO 1 43792U 18099AL 23026.41434640 .00002015 00000-0 18067-3 0 9994 2 43792 97.5913 92.2027 0011531 239.0792 120.9297 14.96830348226170 CSIM 1 43793U 18099AM 23026.42231796 .00008710 00000-0 68763-3 0 9999 2 43793 97.6007 94.8001 0016445 232.8281 127.1442 15.00833285226292 Astrocast 0.1 1 43798U 18099AS 23026.10473787 .00009443 00000-0 76908-3 0 9991 2 43798 97.5952 93.9983 0012157 221.2974 138.7331 14.99660934226450 JO-97 1 43803U 18099AX 23025.94524053 .00006921 00000-0 57937-3 0 9991 2 43803 97.5944 92.2337 0012441 237.9839 122.0176 14.98697789226374 Suomi 100 1 43804U 18099AY 23026.11650898 .00007135 00000-0 60021-3 0 9995 2 43804 97.5908 92.2633 0013303 235.3467 124.6502 14.98488688226402 Al Farabi 2 1 43805U 18099AZ 23026.12544055 .00010407 00000-0 84927-3 0 9991 2 43805 97.5933 93.0699 0012704 231.7881 128.2199 14.99552664226449 CHOMPTT 1 43855U 18104G 23026.39975518 .00019354 00000-0 60958-3 0 9992 2 43855 85.0306 262.0305 0015568 122.0478 238.2284 15.32670343228809 ISAT 1 43879U 18111D 23025.99145132 .00008528 00000-0 69152-3 0 9998 2 43879 97.6505 292.6070 0011870 286.8779 73.1142 14.99866132223009 UWE-4 1 43880U 18111E 23025.97745017 .00007442 00000-0 60312-3 0 9999 2 43880 97.6578 293.4375 0011591 300.5136 59.4943 14.99932999223033 Sparrow 1 43881U 18111F 23025.96508658 .00009356 00000-0 75108-3 0 9992 2 43881 97.6640 293.7548 0010288 310.7695 49.2635 15.00240465223043 Lume 1 1 43908U 18111AJ 23026.57757098 .00029253 00000-0 81419-3 0 9994 2 43908 97.1623 272.7157 0015867 2.6627 357.4699 15.36647802227573 FO-99 1 43937U 19003F 23026.55787683 .00036786 00000-0 96050-3 0 9994 2 43937 97.1078 56.8786 0018952 74.6843 285.6496 15.38521937224177 AstroCast 0.2 1 44083U 19018F 23026.62775499 .00030341 00000-0 90997-3 0 9998 2 44083 97.2916 86.7595 0008395 47.7755 312.4199 15.34388024212603 AISTechSat 3 1 44103U 19018AB 23026.09982306 .00025342 00000-0 79619-3 0 9992 2 44103 97.2775 86.2123 0011901 66.0461 294.2027 15.32911551212686 AISat 1 1 44104U 19018AC 23026.81858949 .00018740 00000-0 44924-3 0 9993 2 44104 97.3813 116.2621 0047793 51.6657 308.8870 15.40235911213916 Prox-1 1 44339U 19036A 23025.90208691 .00009377 00000-0 19988-2 0 9992 2 44339 23.9997 227.5075 0009465 136.7230 223.4006 14.56961022190809 Oculus-ASR 1 44348U 19036K 23026.44588742 .00331520 29690-4 92357-3 0 9990 2 44348 28.4902 55.0606 0093832 358.7657 1.2713 15.85160868199245 NO-104 1 44354U 19036R 23026.11382245 .00468064 75856-4 92429-3 0 9990 2 44354 28.5155 34.2212 0076339 28.6542 331.8238 15.93408864199428 Move-IIb 1 44398U 19038N 23026.48802906 .00034066 00000-0 13011-2 0 9996 2 44398 97.6542 4.2164 0020873 76.8970 283.4596 15.26351187196953 SONATE 1 44400U 19038Q 23026.45362536 .00011485 00000-0 57136-3 0 9994 2 44400 97.6699 1.7055 0024443 84.9589 275.4433 15.17520281196712 BeeSat 9 1 44412U 19038AC 23026.45660965 .00021453 00000-0 93585-3 0 9998 2 44412 97.6630 3.3942 0020798 84.5785 275.7823 15.21982769196541 JAISAT-1 1 44419U 19038F 23026.44042250 .00021303 00000-0 91825-3 0 9994 2 44419 97.6631 4.3807 0019761 81.9473 278.4004 15.22410705196912 Taurus 1 1 44530U 19059C 23026.40816881 .00007276 00000-0 19531-2 0 9992 2 44530 98.5495 132.2855 0013953 161.9924 198.1693 14.48352286178104 Duchifat 3 1 44854U 19089C 23026.69941506 .00010396 00000-0 75625-3 0 9992 2 44854 36.9626 215.0877 0007889 253.9443 197.9967 15.03293904171510 OPS-SAT 1 44878U 19092F 23026.49867494 .00022962 00000-0 90250-3 0 9996 2 44878 97.4766 214.2806 0010425 286.1520 73.8571 15.25634619172127 TO-108 1 44881U 19093C 23026.67643670 .00001820 00000-0 23514-3 0 9998 2 44881 97.8751 107.5062 0014773 174.3062 185.8317 14.82085110167838 FloripaSat 1 1 44885U 19093G 23026.72403512 .00006027 00000-0 72367-3 0 9991 2 44885 97.8809 109.5494 0014182 178.4226 181.7016 14.84292658167951 RS-44 1 44909U 19096E 23026.55741902 .00000014 00000-0 53501-5 0 9991 2 44909 82.5192 82.0597 0217973 157.8606 203.2087 12.79718008144046 BY70-2 1 45857U 20042B 23026.73241809 .00023010 00000-0 27616-2 0 9994 2 45857 97.9386 106.7706 0010260 110.3709 249.8658 14.83973972138513 UPMSat 2 1 46276U 20061E 23026.14716309 .00009983 00000-0 46004-3 0 9994 2 46276 97.3660 96.8500 0002630 98.8319 261.3215 15.20467785132680 AmicalSat 1 46287U 20061R 23026.15831896 .00013171 00000-0 69302-3 0 9996 2 46287 97.4200 95.6322 0001569 197.7467 162.3711 15.15766056132166 SALSAT 1 46495U 20068K 23026.41705241 .00005144 00000-0 35736-3 0 9992 2 46495 97.7546 333.2508 0014550 238.1892 121.7918 15.05908001127727 BY70-3 1 46839U 20079N 23026.59610515 .00112456 00000-0 13499-2 0 9990 2 46839 97.1705 102.5167 0004038 243.3208 252.7098 15.60513129124777 CAPE 3 1 47309U 21002A 23026.02319279 .00028402 00000-0 92606-3 0 9996 2 47309 60.6798 244.2376 0040157 107.0143 253.5354 15.30924943112441 AO-109 1 47311U 21002C 23026.04287636 .00023477 00000-0 77732-3 0 9992 2 47311 60.6820 241.6316 0037402 104.3637 256.1610 15.30631162112466 MiTEE 1 1 47314U 21002F 23025.97668031 .00069790 00000-0 15160-2 0 9992 2 47314 60.6760 225.4958 0032912 98.5861 261.8967 15.43309587112755 ExoCube 2 1 47319U 21002L 23026.04637324 .00023497 00000-0 79096-3 0 9990 2 47319 60.6802 243.2558 0038231 106.2003 254.3300 15.30067900112402 UVSQ-SAT 1 47438U 21006AB 23026.74083973 .00014910 00000-0 70800-3 0 9992 2 47438 97.4075 86.2280 0010082 213.1657 146.8947 15.19291533111137 YUSAT 1 1 47439U 21006AC 23026.40956025 .00017071 00000-0 78347-3 0 9998 2 47439 97.4082 86.2575 0009717 213.5417 146.5204 15.20442461111104 SOMP 2b 1 47445U 21006AJ 23026.40578754 .00013528 00000-0 65330-3 0 9995 2 47445 97.4047 85.3455 0009784 219.0406 141.0123 15.18732078111060 IDEASSat 1 47458U 21006AX 23026.61085923 .00013512 00000-0 65710-3 0 9998 2 47458 97.4136 86.2443 0009019 216.3450 143.7173 15.18494827111083 CubeSX-Sirius-HSE 1 47951U 21022V 23026.58374951 .00012485 00000-0 76717-3 0 9999 2 47951 97.5130 286.4527 0022113 101.4571 343.0206 15.09999681101631 CubeSX-HSE 1 47952U 21022W 23026.56925094 .00011847 00000-0 72731-3 0 9991 2 47952 97.5134 286.4743 0022030 99.9647 20.0056 15.10048385101632 KSU-Cubesat 1 47954U 21022Y 23026.66244958 .00012734 00000-0 77142-3 0 9994 2 47954 97.5128 286.7880 0021444 99.5288 260.8366 15.10524680101384 GRBAlpha 1 47959U 21022AD 23026.75549206 .00011761 00000-0 72108-3 0 9999 2 47959 97.5132 286.7182 0021764 99.0604 351.0250 15.10102583100480 Orbicraft-Zorkiy 1 47960U 21022AE 23026.56981894 .00013248 00000-0 80353-3 0 9996 2 47960 97.5155 286.8015 0021380 99.3619 20.9177 15.10472914101159 STECCO 1 47962U 21022AG 23026.86970318 .00020872 00000-0 11507-2 0 9995 2 47962 97.5118 288.5227 0016757 90.9390 333.4428 15.13885196100613 DO-111 1 47963U 21022AH 23026.51747928 .00063872 00000-0 25145-2 0 9997 2 47963 97.5149 291.4398 0016812 82.8001 277.5147 15.25250022100782 MO-110 1 47964U 21022AJ 23025.97934416 .00019551 00000-0 10625-2 0 9999 2 47964 97.5136 288.0743 0019292 90.5990 269.7452 15.14373504100504 FEES 1 48082U 21022AL 23026.66295102 .00029709 00000-0 15084-2 0 9990 2 48082 97.5136 289.0794 0015577 84.6288 275.6721 15.16745320100336 CSS 1 48274U 21035A 23026.12707606 .00017800 00000-0 21084-3 0 9992 2 48274 41.4757 301.9813 0002903 41.3719 93.1012 15.60820418 99615 TUBIN 1 48900U 21059X 23026.57063067 .00011279 00000-0 58506-3 0 9992 2 48900 97.5780 159.7901 0010722 55.4306 6.0610 15.16268581 87692 IT-SPINS 1 49017U 21013G 23026.07674674 .00029703 00000-0 93699-3 0 9992 2 49017 51.5965 50.3909 0007115 151.5536 208.5834 15.32593461 87846 LEDSAT 1 49069U 21073D 23026.42937508 .00009159 00000-0 54803-3 0 9999 2 49069 97.4998 99.8989 0024595 248.9132 110.9469 15.11004577 79470 CUTE 1 49263U 21088D 23026.13640215 .00010803 00000-0 75386-3 0 9992 2 49263 97.5628 94.5869 0019506 30.3083 329.9267 15.05391064 72890 TeikyoSat 4 1 49396U 21102B 23026.55357186 .00002677 00000-0 21134-3 0 9996 2 49396 97.5410 82.8089 0013552 220.5101 139.5116 15.01474993 66518 Z-Sat 1 49399U 21102E 23026.66355638 .00003474 00000-0 25741-3 0 9995 2 49399 97.5068 84.0611 0022166 187.1700 172.9212 15.03563883 66617 KOSEN 1 1 49402U 21102H 23026.61925842 .00005470 00000-0 38851-3 0 9999 2 49402 97.5008 84.3236 0021651 177.0414 183.0945 15.04924944 66650 HO-113 1 50466U 21131B 23026.65046716 .00000692 00000-0 24035-3 0 9991 2 50466 98.5633 108.6143 0004555 190.9928 169.1161 14.38646330 57002 Tevel-3 1 50988U 22002E 23026.58635546 .00021139 00000-0 10186-2 0 9995 2 50988 97.4551 95.0337 0009292 17.4266 93.6224 15.18714910 57227 Tevel-8 1 50989U 22002F 23026.59850744 .00020856 00000-0 10068-2 0 9990 2 50989 97.4564 95.0887 0009277 16.0344 89.9648 15.18655457 57225 Tevel-5 1 50998U 22002Q 23026.59579910 .00021554 00000-0 10206-2 0 9993 2 50998 97.4542 95.2861 0010443 11.2084 94.7966 15.19309786 57241 Tevel-6 1 50999U 22002R 23026.59515144 .00021495 00000-0 10176-2 0 9993 2 50999 97.4536 95.2812 0010589 11.0996 97.6340 15.19315835 57242 Tevel-1 1 51013U 22002AF 23026.59169376 .00020994 00000-0 10126-2 0 9991 2 51013 97.4543 94.9998 0009129 16.3329 89.6318 15.18683384 57225 Grizu-263a 1 51025U 22002AT 23026.42666917 .00040214 00000-0 15710-2 0 9990 2 51025 97.4703 97.3891 0010892 7.8164 352.3242 15.25710942 57311 NO-116 1 51031U 22002AZ 23025.42251510 .00025638 00000-0 11207-2 0 9995 2 51031 97.4660 95.4460 0011845 15.1649 344.9939 15.22006938 57118 IRIS-A 1 51044U 22002BN 23026.13210974 .00011424 00000-0 59736-3 0 9995 2 51044 97.4550 93.9594 0009240 21.8427 338.3198 15.15988367 57116 Tevel-7 1 51062U 22002CG 23026.60051691 .00020888 00000-0 10083-2 0 9991 2 51062 97.4559 95.0683 0009010 14.6784 91.3012 15.18659117 57222 Tevel-4 1 51063U 22002CH 23026.60871881 .00020804 00000-0 10049-2 0 9993 2 51063 97.4562 95.0680 0009365 14.8322 122.5543 15.18634626 57221 Tevel-2 1 51069U 22002CP 23026.58728684 .00021124 00000-0 10180-2 0 9990 2 51069 97.4551 95.0119 0009268 16.3581 89.5863 15.18712783 57226 DELFI-PQ 1 51074U 22002CU 23026.14652790 .00033164 00000-0 13589-2 0 9995 2 51074 97.4795 97.7151 0012456 39.0269 321.1865 15.24137783 57286 SO-115 1 51080U 22002DA 23026.01210477 .00023600 00000-0 10514-2 0 9999 2 51080 97.4808 97.0422 0013010 42.8052 317.4194 15.21361735 57221 SO-114 1 51081U 22002DB 23026.14225806 .00024017 00000-0 10678-2 0 9990 2 51081 97.4799 97.1346 0013255 42.0605 318.1645 15.21425643 57244 OreSat0 1 52017U 22026K 23026.56689306 .00017061 00000-0 81055-3 0 9990 2 52017 97.5099 29.1364 0023956 215.1845 144.7808 15.19033300 48001 Planetum 1 1 52738U 22057G 23026.29108740 .00013905 00000-0 73929-3 0 9996 2 52738 97.5259 142.9510 0008233 117.1639 243.0433 15.15360757 37133 Foresail-1 1 52766U 22057AL 23026.52643726 .00012680 00000-0 66336-3 0 9994 2 52766 97.5371 143.9083 0014014 100.7572 320.7671 15.15899745 37190 SNUGLITE 2 1 52899U 22065F 23026.39924275 .00001856 00000-0 40711-3 0 9998 2 52899 98.0451 175.4230 0007175 304.5798 55.4725 14.58736248 30188 CTIM 1 52950U 22074G 23026.47703060 .00043662 00000-0 14608-2 0 9998 2 52950 45.0048 63.7013 0008326 28.3652 331.7679 15.30317362 31808 IO-117 1 53106U 22080B 22354.08419093 -.00000003 00000-0 00000 0 0 9990 2 53106 70.1702 21.9397 0008914 226.9685 182.2049 6.42557326 10248 AstroBioCubeSat 1 53107U 22080C 22364.14200119 -.00000003 00000-0 00000-0 0 9997 2 53107 70.1674 18.5562 0013489 216.1674 143.8074 6.42110599 10793 CELESTA 1 53111U 22080G 22310.17474584 -.00000003 00000-0 00000 0 0 9994 2 53111 70.4223 37.2580 0024959 243.8956 115.9136 6.43203861 7301 RS4S 1 53306U 98067TR 23025.79167360 .06976998 12119-4 11313-2 0 9991 2 53306 51.6030 292.9367 0006622 213.3410 249.1678 16.32712172 29462 RS3S 1 53308U 98067TT 23026.30723499 .02092236 44713-2 18084-2 0 9997 2 53308 51.6213 291.3846 0008230 201.1248 158.9429 16.13631555 29592 RS1S 1 53309U 98067TU 23025.96881468 .05268147 11997-4 14203-2 0 9998 2 53309 51.6159 292.0867 0007344 216.1155 143.9371 16.27369306 29509 RS5S 1 53310U 98067TV 23026.10625533 .02366715 78589-2 18360-2 0 9999 2 53310 51.6231 292.2932 0007670 205.3013 154.7629 16.16030248 29540 RS6S 1 53311U 98067TW 23023.95662205 .10980964 12291-4 94749-3 0 9990 2 53311 51.6134 301.8850 0005230 218.9303 141.1347 16.38525487 29243 RS9S 1 53312U 98067TX 23026.30920476 .03956583 11889-4 16048-2 0 9999 2 53312 51.6179 290.6267 0007800 212.8074 147.2462 16.22597490 29547 RS12S 1 53313U 98067TY 23026.11292765 .03745664 11877-4 15835-2 0 9998 2 53313 51.6184 291.5727 0007841 210.3711 149.6854 16.22088270 29565 SelfieSat 1 53951U 22057BA 23026.29220625 .00016278 00000-0 85153-3 0 9999 2 53951 97.5308 143.2626 0010467 111.4332 248.8018 15.15881475 37145 FO-118 1 54684U 22167C 23026.59808076 .00015344 00000-0 95067-3 0 9998 2 54684 97.5396 165.7714 0015414 100.4122 319.3815 15.09758554 7280 HO-119 1 54816U 21035C 23026.82419851 .00192106 00000-0 14115-2 0 9999 2 54816 41.4774 296.0117 0010857 204.1968 222.0420 15.71635233 6105 /EX